Location: A�t �Alizem
(31.2076°N, 8.7872°W)
Time: 05:17:50
(UTC+00:00)

CZ-4B R/B - Pass Details

Date: 27 November 2020
Orbit: 809 x 881 km, 99.1° (Epoch: 25 January)

Event Time Altitude Azimuth Distance (km) Brightness Sun altitude
Rises 18:32:43 0° 178° (S) 3,364 6.5 -12.8°
Reaches altitude 10° 18:35:08 10° 184° (S) 2,424 5.9 -13.3°
Maximum altitude 18:40:20 50° 259° (W) 1,031 4.1 -14.4°
Drops below altitude 10° 18:45:28 10° 335° (NNW) 2,404 5.7 -15.4°
Sets 18:47:53 0° 340° (NNW) 3,335 6.4 -15.9°
